This is the latest recevied weather packets stored in our database for station/object KD8OZS. If no packets are shown the sender has not sent any weather packets the latest 10 day(s).
| Time | Temp. | Humidity | Pressure | Rain* | Wind** | Luminosity | Snow |
|---|---|---|---|---|---|---|---|
| 1777061362 | 27.22° C | 46% | 999.6 hPa | 0 mm | - | 622 W/m² | - |
| 1777061057 | 26.11° C | 48% | 999.8 hPa | 0 mm | - | 599 W/m² | - |
| 1777060754 | 26.11° C | 48% | 999.6 hPa | 0 mm | - | 176 W/m² | - |
| 1777060448 | 26.67° C | 48% | 999.7 hPa | 0 mm | - | 187 W/m² | - |
| 1777060144 | 26.67° C | 46% | 999.8 hPa | 0 mm | - | 205 W/m² | - |
| 1777059841 | 27.22° C | 48% | 999.7 hPa | 0 mm | - | 370 W/m² | - |
| 1777059537 | 27.22° C | 50% | 999.8 hPa | 0 mm | - | 505 W/m² | - |
| 1777059234 | 26.67° C | 49% | 999.7 hPa | 0 mm | - | 440 W/m² | - |
| 1777058934 | 26.67° C | 50% | 1000 hPa | 0 mm | - | 426 W/m² | - |
| 1777058629 | 26.67° C | 49% | 1000 hPa | 0 mm | - | 553 W/m² | - |
| 1777058326 | 26.67° C | 49% | 1000.1 hPa | 0 mm | - | 560 W/m² | - |
| 1777058023 | 27.22° C | 49% | 1000.2 hPa | 0 mm | - | 590 W/m² | - |
| 1777057723 | 26.67° C | 52% | 1000.3 hPa | 0 mm | - | 308 W/m² | - |
| 1777057418 | 26.11° C | 53% | 1000.4 hPa | 0 mm | - | 573 W/m² | - |
| 1777057113 | 26.11° C | 51% | 1000.2 hPa | 0 mm | - | 228 W/m² | - |
| 1777056809 | 26.67° C | 49% | 1000.6 hPa | 0 mm | - | 249 W/m² | - |
| 1777056504 | 26.11° C | 51% | 1000.7 hPa | 0 mm | - | 765 W/m² | - |
| 1777056199 | 27.22° C | 48% | 1000.6 hPa | 0 mm | - | 229 W/m² | - |
| 1777055896 | 27.22° C | 47% | 1000.4 hPa | 0 mm | - | 782 W/m² | - |
| 1777055593 | 27.22° C | 49% | 1000.7 hPa | 0 mm | - | 729 W/m² | - |
| 1777055292 | 26.67° C | 50% | 1000.7 hPa | 0 mm | - | 721 W/m² | - |
| 1777054991 | 27.22° C | 51% | 1000.6 hPa | 0 mm | - | 725 W/m² | - |
| 1777054688 | 27.22° C | 52% | 1000.9 hPa | 0 mm | - | 634 W/m² | - |
| 1777054385 | 26.67° C | 50% | 1001 hPa | 0 mm | - | 527 W/m² | - |
| 1777054083 | 26.11° C | 52% | 1001.2 hPa | 0 mm | - | 691 W/m² | - |
* Rain latest hour (hover to see other rain measurements)
** Current wind speed in m/s (hover to see current wind gust speed)